WA7BMK Weather Reports


Display with metric or nautical units.
time (UTC)temp
F
wind
direction
speed
MPH
gust
MPH
rain 1hr
in
rain 24hr
in
rain mn
in
humidity
%
barometer
mb
20260503201534 75 339 3.0 9.0 0.00 0.00 0.00 51 1012.9
20260503200034 74 333 2.0 6.0 0.00 0.00 0.00 53 1013.1
20260503194533 74 300 1.0 6.0 0.00 0.00 0.00 56 1013.2
20260503193042 75 0 1.0 4.0 0.00 0.00 0.00 54 1013.4
20260503191537 75 284 2.0 8.0 0.00 0.00 0.00 52 1013.5
20260503190037 73 302 1.0 6.0 0.00 0.00 0.00 56 1013.6
20260503184535 74 264 1.0 8.0 0.00 0.00 0.00 53 1013.7
20260503183037 72 5 1.0 5.0 0.00 0.00 0.00 57 1013.8
20260503181612 71 202 1.0 6.0 0.00 0.00 0.00 57 1014.0
20260503180040 70 170 1.0 4.0 0.00 0.00 0.00 60 1014.1
20260503174537 69 317 1.0 4.0 0.00 0.00 0.00 59 1014.3
20260503173044 68 265 1.0 5.0 0.00 0.00 0.00 60 1014.3
20260503171536 69 333 2.0 5.0 0.00 0.00 0.00 59 1014.3
20260503081538 56 0 0.0 0.0 0.00 0.00 0.00 71 1014.8
20260503071538 60 0 0.0 0.0 0.00 0.00 0.00 64 1014.8
20260503054536 63 0 0.0 4.0 0.00 0.00 0.00 58 1014.6
20260503053040 63 227 0.0 1.0 0.00 0.00 0.00 59 1014.6
20260503051542 63 0 0.0 2.0 0.00 0.00 0.00 60 1014.6
20260503050036 62 0 0.0 3.0 0.00 0.00 0.00 63 1014.6
20260503044603 62 0 0.0 3.0 0.00 0.00 0.00 65 1014.5
20260503043037 61 0 0.0 1.0 0.00 0.00 0.00 67 1014.2
20260503041536 61 0 0.0 1.0 0.00 0.00 0.00 67 1014.0
20260503040037 62 0 0.0 1.0 0.00 0.00 0.00 66 1013.9
20260503034533 63 0 0.0 1.0 0.00 0.00 0.00 65 1013.7
20260503033037 64 0 0.0 2.0 0.00 0.00 0.00 63 1013.5
20260503031539 65 0 0.0 3.0 0.00 0.00 0.00 62 1013.4
20260503030041 67 0 0.0 3.0 0.00 0.00 0.00 59 1013.2
20260503024536 68 0 0.0 2.0 0.00 0.00 0.00 56 1013.1
20260503023042 69 9 0.0 5.0 0.00 0.00 0.00 54 1013.0
20260503021536 70 0 0.0 7.0 0.00 0.00 0.00 54 1013.0
20260503020038 71 286 1.0 6.0 0.00 0.00 0.00 51 1013.0
20260503014543 73 288 1.0 4.0 0.00 0.00 0.00 50 1013.2
20260503013036 73 71 1.0 4.0 0.00 0.00 0.00 50 1013.1
20260503011534 73 284 2.0 10.0 0.00 0.00 0.00 53 1013.1
20260503010034 73 263 2.0 8.0 0.00 0.00 0.00 51 1013.2
20260503004537 73 313 2.0 8.0 0.00 0.00 0.00 51 1013.3
20260503003045 73 294 3.0 11.0 0.00 0.00 0.00 51 1013.4
20260503001544 73 291 3.0 8.0 0.00 0.00 0.00 49 1013.5
20260503000045 73 252 1.0 8.0 0.00 0.00 0.00 49 1013.6
20260502234550 73 347 2.0 9.0 0.00 0.00 0.00 51 1013.7
20260502233036 73 254 2.0 12.0 0.00 0.00 0.00 53 1013.9
20260502231536 72 9 3.0 10.0 0.00 0.00 0.00 56 1014.2
20260502230035 71 360 3.0 12.0 0.00 0.00 0.00 55 1014.6
20260502224535 71 12 2.0 11.0 0.00 0.00 0.00 56 1014.6
20260502223038 71 99 1.0 11.0 0.00 0.00 0.00 58 1014.8
20260502221536 71 331 2.0 9.0 0.00 0.00 0.00 57 1014.9
20260502220039 70 287 2.0 11.0 0.00 0.00 0.00 58 1015.0
20260502214545 70 236 3.0 11.0 0.00 0.00 0.00 60 1015.2
20260502213039 69 0 2.0 13.0 0.00 0.00 0.00 60 1015.3
20260502211535 71 5 3.0 9.0 0.00 0.00 0.00 58 1015.5
20260502210032 71 5 1.0 6.0 0.00 0.00 0.00 62 1015.6
20260502204540 69 327 2.0 11.0 0.00 0.00 0.00 62 1015.6
20260502203100 69 229 2.0 8.0 0.00 0.00 0.00 63 1015.7